| time (UTC) | temp C | wind direction | speed KPH | gust KPH | rain 1hr cm | rain 24hr cm | rain mn cm | humidity % | barometer mb |
| 20260509031549 | 16 | 355 | 11.3 | 14.5 | 0.00 | 0.00 | 0.00 | 29 | 921.5 |
| 20260509030037 | 17 | 355 | 9.7 | 14.5 | 0.00 | 0.00 | 0.00 | 28 | 921.2 |
| 20260509024530 | 17 | 355 | 12.9 | 19.3 | 0.00 | 0.00 | 0.00 | 27 | 921.1 |
| 20260509023023 | 18 | 360 | 17.7 | 27.4 | 0.00 | 0.00 | 0.00 | 26 | 921.0 |
| 20260509021522 | 19 | 9 | 16.1 | 24.1 | 0.00 | 0.00 | 0.00 | 25 | 920.9 |
| 20260509020017 | 20 | 355 | 16.1 | 27.4 | 0.00 | 0.00 | 0.00 | 25 | 920.9 |
| 20260509014517 | 20 | 360 | 20.9 | 30.6 | 0.00 | 0.00 | 0.00 | 25 | 920.8 |
| 20260509013035 | 21 | 355 | 27.4 | 40.2 | 0.00 | 0.00 | 0.00 | 25 | 920.7 |
| 20260509011515 | 21 | 328 | 27.4 | 38.6 | 0.00 | 0.00 | 0.00 | 24 | 920.8 |
| 20260509010023 | 22 | 323 | 27.4 | 38.6 | 0.00 | 0.00 | 0.00 | 22 | 920.7 |
| 20260509004533 | 22 | 310 | 24.1 | 33.8 | 0.00 | 0.00 | 0.00 | 20 | 920.8 |
| 20260509003100 | 22 | 338 | 29.0 | 38.6 | 0.00 | 0.00 | 0.00 | 20 | 920.7 |
| 20260509001557 | 22 | 315 | 25.7 | 40.2 | 0.00 | 0.00 | 0.00 | 19 | 920.8 |
| 20260509001509 | 22 | 305 | 25.7 | 40.2 | 0.00 | 0.00 | 0.00 | 19 | 920.8 |
| 20260509000039 | 23 | 314 | 27.4 | 41.8 | 0.00 | 0.00 | 0.00 | 18 | 920.7 |
| 20260508234538 | 23 | 327 | 24.1 | 40.2 | 0.00 | 0.00 | 0.00 | 17 | 920.7 |
| 20260508233021 | 23 | 309 | 30.6 | 43.5 | 0.00 | 0.00 | 0.00 | 17 | 920.5 |
| 20260508231520 | 23 | 317 | 30.6 | 43.5 | 0.00 | 0.00 | 0.00 | 15 | 920.6 |
| 20260508230023 | 24 | 323 | 27.4 | 49.9 | 0.00 | 0.00 | 0.00 | 17 | 920.5 |
| 20260508224501 | 24 | 324 | 27.4 | 41.8 | 0.00 | 0.00 | 0.00 | 17 | 920.5 |
| 20260508223051 | 23 | 300 | 33.8 | 48.3 | 0.00 | 0.00 | 0.00 | 18 | 920.4 |
| 20260508221544 | 24 | 305 | 30.6 | 48.3 | 0.00 | 0.00 | 0.00 | 16 | 920.4 |
| 20260508220024 | 24 | 278 | 20.9 | 46.7 | 0.00 | 0.00 | 0.00 | 17 | 920.4 |
| 20260508214524 | 23 | 324 | 24.1 | 51.5 | 0.00 | 0.00 | 0.00 | 16 | 920.5 |
| 20260508213005 | 24 | 338 | 30.6 | 49.9 | 0.00 | 0.00 | 0.00 | 16 | 920.5 |
| 20260508211509 | 24 | 302 | 30.6 | 48.3 | 0.00 | 0.00 | 0.00 | 18 | 920.6 |
| 20260508204542 | 23 | 250 | 22.5 | 35.4 | 0.00 | 0.00 | 0.00 | 20 | 920.8 |
| 20260508203025 | 23 | 330 | 22.5 | 35.4 | 0.00 | 0.00 | 0.00 | 22 | 920.9 |
| 20260508201522 | 23 | 287 | 30.6 | 45.1 | 0.00 | 0.00 | 0.00 | 23 | 920.9 |
| 20260508200002 | 22 | 198 | 11.3 | 33.8 | 0.00 | 0.00 | 0.00 | 27 | 921.1 |
| 20260508194600 | 23 | 286 | 16.1 | 35.4 | 0.00 | 0.00 | 0.00 | 27 | 921.3 |
| 20260508193045 | 22 | 298 | 19.3 | 35.4 | 0.00 | 0.00 | 0.00 | 29 | 921.4 |
| 20260508191538 | 22 | 302 | 17.7 | 38.6 | 0.00 | 0.00 | 0.00 | 29 | 921.6 |
| 20260508190017 | 22 | 243 | 14.5 | 35.4 | 0.00 | 0.00 | 0.00 | 31 | 921.9 |
| 20260508184523 | 22 | 229 | 16.1 | 33.8 | 0.00 | 0.00 | 0.00 | 32 | 922.0 |
| 20260508183055 | 21 | 236 | 14.5 | 38.6 | 0.00 | 0.00 | 0.00 | 33 | 922.2 |
| 20260508181605 | 21 | 237 | 20.9 | 29.0 | 0.00 | 0.00 | 0.00 | 34 | 922.4 |
| 20260508180033 | 21 | 215 | 19.3 | 27.4 | 0.00 | 0.00 | 0.00 | 36 | 922.5 |
| 20260508174530 | 20 | 235 | 11.3 | 27.4 | 0.00 | 0.00 | 0.00 | 38 | 922.7 |
| 20260508173007 | 20 | 246 | 14.5 | 30.6 | 0.00 | 0.00 | 0.00 | 40 | 922.8 |
| 20260508171504 | 19 | 232 | 12.9 | 29.0 | 0.00 | 0.00 | 0.00 | 43 | 923.1 |
| 20260508170044 | 18 | 240 | 14.5 | 27.4 | 0.00 | 0.00 | 0.00 | 44 | 923.3 |
| 20260508164555 | 18 | 228 | 16.1 | 25.7 | 0.00 | 0.00 | 0.00 | 47 | 923.3 |
| 20260508163021 | 17 | 215 | 17.7 | 25.7 | 0.00 | 0.00 | 0.00 | 48 | 923.5 |
| 20260508161517 | 17 | 219 | 16.1 | 25.7 | 0.00 | 0.00 | 0.00 | 51 | 923.5 |
| 20260508160056 | 16 | 207 | 17.7 | 25.7 | 0.00 | 0.00 | 0.00 | 53 | 923.7 |
| 20260508154554 | 15 | 207 | 16.1 | 22.5 | 0.00 | 0.00 | 0.00 | 55 | 923.8 |
| 20260508153033 | 14 | 202 | 14.5 | 24.1 | 0.00 | 0.00 | 0.00 | 59 | 924.0 |
| 20260508151530 | 13 | 218 | 16.1 | 22.5 | 0.00 | 0.00 | 0.00 | 63 | 924.1 |
| 20260508150011 | 12 | 225 | 14.5 | 20.9 | 0.00 | 0.00 | 0.00 | 66 | 924.2 |
| 20260508144503 | 12 | 236 | 17.7 | 22.5 | 0.00 | 0.00 | 0.00 | 68 | 924.5 |
| 20260508143045 | 11 | 237 | 14.5 | 19.3 | 0.00 | 0.00 | 0.00 | 69 | 924.6 |
| 20260508141640 | 10 | 240 | 17.7 | 22.5 | 0.00 | 0.00 | 0.00 | 72 | 924.7 |
| 20260508140019 | 9 | 240 | 17.7 | 22.5 | 0.00 | 0.00 | 0.00 | 74 | 924.8 |
| 20260508134521 | 8 | 244 | 17.7 | 20.9 | 0.00 | 0.00 | 0.00 | 74 | 924.8 |
| 20260508133115 | 7 | 231 | 9.7 | 16.1 | 0.00 | 0.00 | 0.00 | 75 | 924.8 |
| 20260508131549 | 6 | 234 | 11.3 | 14.5 | 0.00 | 0.00 | 0.00 | 74 | 924.8 |
| 20260508130030 | 6 | 228 | 3.2 | 9.7 | 0.00 | 0.00 | 0.00 | 76 | 924.7 |
| 20260508124530 | 5 | 230 | 11.3 | 14.5 | 0.00 | 0.00 | 0.00 | 78 | 924.9 |
| 20260508123009 | 4 | 229 | 3.2 | 6.4 | 0.00 | 0.00 | 0.00 | 73 | 924.8 |
| 20260508121508 | 4 | 210 | 4.8 | 14.5 | 0.00 | 0.00 | 0.00 | 73 | 924.8 |
| 20260508120052 | 4 | 316 | 14.5 | 19.3 | 0.00 | 0.00 | 0.00 | 71 | 924.6 |
| 20260508114548 | 4 | 327 | 8.0 | 14.5 | 0.00 | 0.00 | 0.00 | 69 | 924.5 |
| 20260508113031 | 5 | 322 | 12.9 | 20.9 | 0.00 | 0.00 | 0.00 | 68 | 924.5 |
| 20260508111530 | 5 | 317 | 14.5 | 20.9 | 0.00 | 0.00 | 0.00 | 69 | 924.5 |
| 20260508110025 | 4 | 303 | 12.9 | 16.1 | 0.00 | 0.00 | 0.00 | 69 | 924.6 |
| 20260508104509 | 4 | 308 | 12.9 | 17.7 | 0.00 | 0.00 | 0.00 | 66 | 924.6 |
| 20260508103057 | 5 | 296 | 11.3 | 16.1 | 0.00 | 0.00 | 0.00 | 65 | 924.5 |
| 20260508101548 | 6 | 286 | 9.7 | 14.5 | 0.00 | 0.00 | 0.00 | 62 | 924.5 |
| 20260508100029 | 6 | 323 | 8.0 | 14.5 | 0.00 | 0.00 | 0.00 | 63 | 924.7 |
| 20260508094524 | 5 | 215 | 8.0 | 19.3 | 0.00 | 0.00 | 0.00 | 70 | 924.7 |
| 20260508093003 | 6 | 308 | 12.9 | 16.1 | 0.00 | 0.00 | 0.00 | 66 | 924.6 |
| 20260508091501 | 6 | 290 | 11.3 | 17.7 | 0.00 | 0.00 | 0.00 | 67 | 924.6 |
| 20260508090059 | 7 | 308 | 8.0 | 12.9 | 0.00 | 0.00 | 0.00 | 64 | 924.5 |
| 20260508084542 | 8 | 313 | 11.3 | 16.1 | 0.00 | 0.00 | 0.00 | 63 | 924.6 |
| 20260508083027 | 9 | 290 | 9.7 | 16.1 | 0.00 | 0.00 | 0.00 | 60 | 924.6 |
| 20260508081527 | 10 | 297 | 16.1 | 27.4 | 0.00 | 0.00 | 0.00 | 58 | 924.7 |
| 20260508080011 | 9 | 301 | 16.1 | 25.7 | 0.00 | 0.00 | 0.00 | 64 | 924.7 |
| 20260508074515 | 10 | 283 | 8.0 | 14.5 | 0.00 | 0.00 | 0.00 | 63 | 924.6 |
| 20260508073101 | 10 | 232 | 16.1 | 22.5 | 0.00 | 0.00 | 0.00 | 65 | 924.7 |
| 20260508071555 | 9 | 283 | 9.7 | 14.5 | 0.00 | 0.00 | 0.00 | 67 | 924.6 |
| 20260508070030 | 8 | 244 | 9.7 | 11.3 | 0.00 | 0.00 | 0.00 | 66 | 924.5 |
| 20260508064532 | 9 | 273 | 11.3 | 16.1 | 0.00 | 0.00 | 0.00 | 66 | 924.5 |
| 20260508063011 | 9 | 274 | 8.0 | 12.9 | 0.00 | 0.00 | 0.00 | 66 | 924.5 |
| 20260508061513 | 9 | 251 | 8.0 | 11.3 | 0.00 | 0.00 | 0.00 | 65 | 924.4 |
| 20260508060109 | 10 | 265 | 9.7 | 12.9 | 0.00 | 0.00 | 0.00 | 64 | 924.4 |
| 20260508054552 | 10 | 260 | 11.3 | 16.1 | 0.00 | 0.00 | 0.00 | 62 | 924.3 |
| 20260508053114 | 10 | 265 | 11.3 | 14.5 | 0.00 | 0.00 | 0.00 | 62 | 924.5 |
| 20260508051531 | 10 | 261 | 11.3 | 16.1 | 0.00 | 0.00 | 0.00 | 61 | 924.3 |
| 20260508050031 | 11 | 260 | 12.9 | 14.5 | 0.00 | 0.00 | 0.00 | 60 | 924.3 |
| 20260508044512 | 12 | 275 | 11.3 | 12.9 | 0.00 | 0.00 | 0.00 | 56 | 924.5 |
| 20260508043012 | 13 | 272 | 11.3 | 16.1 | 0.00 | 0.00 | 0.00 | 53 | 924.5 |
| 20260508041614 | 14 | 270 | 12.9 | 19.3 | 0.00 | 0.00 | 0.00 | 50 | 924.5 |
| 20260508040109 | 15 | 286 | 19.3 | 25.7 | 0.00 | 0.00 | 0.00 | 49 | 924.5 |
| 20260508034535 | 14 | 282 | 20.9 | 29.0 | 0.00 | 0.00 | 0.00 | 50 | 924.4 |
| 20260508033033 | 13 | 282 | 20.9 | 25.7 | 0.00 | 0.00 | 0.00 | 52 | 924.3 |